TNCMTKPK

Guest
Details From TNCM - St Maarten - Princess Juliana Intl
To TKPK - St. Kitts/Bradshaw Intl
Flight Number -
Tags generated
Created
Modified
Stats Distance 49 nm / 91 km
Max Altitude 2,400 ft / 732 m
Waypoints 3
Social Downloads 1
Likes 0
Share VATSIM

Download

Looking for another format? Having issues loading an existing format? Contact us
Advertisement - Login to hide

Notes

Basic altitude profile: - Ascent Rate: 2500ft/min - Ascent Speed: 250kts - Cruise Altitude: 5000ft - Cruise Speed: 250kts - Descent Rate: 1000ft/min - Descent Speed: 240kts Options: - Use NATs: yes - Use PACOTS: yes - Use low airways: yes - Use high airways: no

Route

TNCM TIKAL TKPK

ID Type Via Altitude Latitude Longitude Leg Dist Tot Dist Heading (true) Name
O TNCM APT - 0 ft / 0 m 18.04089˚ -63.10897˚ - 0 nm - St Maarten - Princess Juliana Intl
TIKAL FIX - 2,400 ft / 732 m 17.47381˚ -62.81800˚ 37 nm 37 nm 154° / 154° -
O TKPK APT - 0 ft / 0 m 17.31119˚ -62.71867˚ 11 nm 49 nm 150° / 150° St. Kitts/Bradshaw Intl

Altitude Profile

Advertisement - Login to hide

TNCM

Details ICAO TNCM (SXM)
Name St Maarten - Princess Juliana Intl
Region Caribbean Netherlands, Aruba, Curaçao, Sint Maarten
Timezone Unknown (UTC+0.0)
Stats Elevation 12 ft / 4 m (AMSL)
Location 18.040889° -63.108974°
Runways 1
Magnetic Variation 14.325° W

METAR

TNCM 161100Z 06012KT 9999 VCSH SCT016 26/22 Q1017 A3005 TEMPO TL1200 SHRA

Decode

TAF

TNCM 160520Z 1606/1706 06010KT P6SM SCT022 FM161200 05017KT P6SM SCT018 SCT040 FM162300 06011KT P6SM FEW022

Decode

Departure Runways

ID Width Length Bearing (true) Bearing (mag) Surface Threshold Offset Overrun Length
10 148 ft / 45 m 7,464 ft / 2,275 m 81.43° 95.76° Asphalt 0 ft / 0 m 151 ft / 46 m
28 148 ft / 45 m 7,464 ft / 2,275 m 261.44° 275.77° Asphalt 397 ft / 121 m 0 ft / 0 m

TKPK

Details ICAO TKPK (SKB)
Name St. Kitts/Bradshaw Intl
Region Saint Kitts and Nevis
Timezone America/St_Kitts (UTC-4.0)
Stats Elevation 170 ft / 52 m (AMSL)
Location 17.311194° -62.718666°
Runways 1
Magnetic Variation 14.451° W

METAR

TKPK 161100Z 04011KT 9999 FEW019 26/23 Q1017

Decode

TAF

TAF TKPK 160520Z 1606/1706 06010KT P6SM FEW020 FM161200 05017KT P6SM SCT020 FM162300 06011KT P6SM FEW022 AMD NOT SKED 1602/1611

Decode

Destination Runways

ID Width Length Bearing (true) Bearing (mag) Surface Threshold Offset Overrun Length
07 148 ft / 45 m 7,620 ft / 2,323 m 56.95° 71.40° Asphalt 200 ft / 61 m 0 ft / 0 m
25 148 ft / 45 m 7,620 ft / 2,323 m 236.95° 251.40° Asphalt 0 ft / 0 m 0 ft / 0 m

Popular Alternatives